CAPE
0 0 0 0 0 0 0 0 0 0 0 0 0 0 0 0 0 0 0 0 0 0 0 0 0 0 0 0 24 49 91 23 26 0 1 1 28 42 38 8 0 7 3
0 0 0 0 0 0 0 0 0 0 0 0 0 0 0 0 0 0 0 0 0 0 0 0 0 0 3 12 1 0 0 0 2 2 0 1 6 25 7 4 7 25 35
0 0 0 0 0 0 0 0 0 0 0 0 0 0 0 0 0 0 0 0 0 0 0 0 0 93 83 0 0 0 0 0 0 0 0 0 0 0 7 0 0 0 0
0 0 0 0 0 0 0 0 0 0 0 0 0 0 0 0 0 0 0 0 0 0 0 0 0 0 15 2 0 0 0 0 0 0 0 6 12 1 0 0 0 0 0
0 0 0 0 0 0 0 0 0 0 0 0 0 0 0 0 0 0 0 0 0 0 0 0 0 0 0 0 18 41 21 0 2 4 5 15 0 0 0 0 0 0 0
0 0 0 0 0 0 0 0 0 0 0 0 0 0 0 0 8 8 8 10 0 0 0 0 0 0 0 0 0 0 0 0 4 7 5 61 31 0 0 0 0 0 0
0 0 0 0 0 0 0 0 0 0 0 0 0 0 0 0 6 16 18 0 1 4 13 1 3 6 1 0 0 0 0 0 0 70 79 1 0 0 0 0 0 0 0
0 0 0 0 0 0 0 0 0 0 0 0 0 0 0 0 3 7 0 0 0 0 0 1 3 1 1 1 1 4 11 87 0 14 3 0 0 0 0 0 0 0 0
0 0 0 0 0 0 0 0 0 0 0 0 0 0 0 0 0 0 0 0 0 0 0 5 1 13 2 0 0 7 46 10 0 0 0 0 0 0 0 0 0 0 0
0 0 0 0 0 0 0 0 2 3 0 1 4 0 1 0 0 0 0 0 0 0 17 0 4 0 1 5 4 0 0 0 0 0 0 0 0 0 0 0 0 0 0
0 0 0 0 1 2 0 1 0 5 6 6 0 1 22 5 0 0 0 0 13 26 5 13 27 8 1 0 0 0 0 0 0 0 0 0 0 0 0 0 0 0 0
0 0 1 1 2 4 3 4 4 5 6 0 0 0 9 0 0 0 0 0 22 5 1 5 32 0 0 0 0 0 0 0 0 0 0 0 0 0 0 0 0 0 0
1 2 5 6 3 2 3 5 6 8 11 5 15 18 9 0 0 0 0 0 1 0 0 5 0 0 0 0 0 0 0 0 0 0 0 0 0 0 0 0 0 0 0
5 6 4 4 2 3 4 4 5 8 10 10 13 26 2 0 0 0 0 1 1 0 0 1 0 0 0 0 0 0 0 0 0 0 0 0 0 0 0 0 0 0 0
7 5 5 5 6 5 5 5 8 9 15 19 24 4 0 0 0 0 0 32 5 0 0 0 0 0 0 0 0 0 0 0 0 0 0 0 0 0 0 0 0 0 2
5 6 6 8 7 9 9 8 1 2 0 0 0 0 0 0 0 0 0 0 0 1 0 0 0 0 0 0 0 0 0 0 0 0 0 0 0 0 0 0 0 0 27
7 6 4 7 7 7 9 11 8 9 0 0 0 0 0 0 0 0 0 0 0 1 1 0 0 0 0 0 0 0 0 0 0 0 0 0 0 0 0 0 0 0 35
4 5 3 2 3 4 6 8 11 12 9 5 0 0 0 0 0 0 0 0 0 0 2 0 0 0 0 0 0 0 0 0 0 0 0 0 0 0 0 0 0 0 0
3 2 2 2 2 4 6 7 8 14 10 13 0 0 0 0 0 0 0 0 0 0 1 0 0 0 0 0 0 0 0 0 0 0 0 0 0 0 0 0 0 0 1
3 1 0 1 1 2 4 6 12 12 11 7 2 0 0 0 0 0 0 0 0 0 0 0 0 0 0 0 0 0 0 0 0 0 0 0 0 0 0 0 0 0 0
3 1 0 7 1 2 7 10 12 10 6 1 7 0 0 0 0 0 0 0 0 0 0 0 0 0 0 0 0 0 0 0 0 0 0 0 0 0 0 0 0 0 0
2 3 4 6 7 7 8 9 10 10 5 1 1 0 0 0 0 0 0 0 0 0 0 0 0 0 0 0 0 0 0 0 0 0 0 0 0 0 0 0 0 0 0
5 4 4 4 6 3 5 9 11 7 4 0 0 0 0 0 0 0 0 0 0 0 0 0 0 0 0 0 0 0 0 0 0 0 0 0 0 0 0 0 0 1 2
5 6 5 4 6 3 7 10 8 3 0 0 0 0 0 0 0 0 0 0 0 0 0 0 0 0 0 0 0 0 0 0 0 0 0 0 0 0 9 1 1 13 19
5 5 5 5 5 3 1 3 0 0 0 0 0 0 0 0 0 0 0 0 0 0 0 0 0 0 0 0 0 0 0 0 0 0 0 0 0 16 9 0 0 0 0
4 5 5 4 4 4 3 3 2 0 0 0 0 0 0 0 0 0 0 0 0 0 0 0 0 0 0 0 0 0 0 0 0 0 0 0 0 0 0 0 0 1 0
CIN
-0 -0 -0 -0 -0 -0 -0 -0 -0 -0 -0 -0 -0 -0 -0 -0 -0 -0 -0 -0 -0 -0 -0 -0 -0 -0 -0 -0 -53 -54 -20 -6 -1 -30 -80 -138 -234 -283 -356 -305 -0 -335 -180
-0 -0 -0 -0 -0 -0 -0 -0 -0 -0 -0 -0 -0 -0 -0 -0 -0 -0 -0 -0 -0 -0 -0 -0 -0 -0 -1 -21 -18 -0 -0 -0 -38 -62 -0 -254 -212 -276 -349 -284 -302 -238 -210
-0 -0 -0 -0 -0 -0 -0 -0 -0 -0 -0 -0 -0 -0 -0 -0 -0 -0 -0 -0 -0 -0 -0 -0 -0 -8 -5 -0 -0 -0 -0 -0 -0 -0 -3 -10 -0 -0 -268 -0 -0 -0 -0
-0 -0 -0 -0 -0 -0 -0 -0 -0 -0 -0 -0 -0 -0 -0 -0 -0 -0 -0 -0 -0 -0 -0 -0 -0 -0 -1 -6 -0 -0 -0 -0 -0 -0 -0 -111 -151 -9 -0 -0 -0 -0 -0
-0 -0 -0 -0 -0 -0 -0 -0 -0 -0 -0 -0 -0 -0 -0 -0 -0 -0 -0 -0 -0 -0 -0 -0 -0 -0 -0 -0 -1 -47 -59 -0 -47 -0 -0 -42 -0 -0 -0 -0 -0 -0 -0
-0 -0 -0 -0 -0 -0 -0 -0 -0 -0 -0 -0 -0 -0 -0 -0 -136 -116 -132 -141 -1 -1 -0 -0 -0 -0 -0 -0 -0 -0 -0 -0 -141 -0 -157 -60 -173 -0 -0 -0 -0 -0 -0
-0 -0 -0 -0 -0 -0 -0 -0 -0 -0 -0 -0 -0 -0 -0 -0 -126 -91 -119 -0 -95 -59 -57 -9 -0 -0 -3 -1 -0 -0 -0 -0 -0 -148 -98 -77 -0 -0 -0 -0 -0 -0 -0
-0 -0 -0 -0 -0 -0 -0 -0 -0 -0 -0 -0 -0 -0 -0 -0 -118 -91 -14 -0 -0 -0 -0 -0 -9 -7 -0 -1 -1 -1 -7 -120 -0 -157 -68 -0 -0 -0 -0 -0 -0 -0 -0
-0 -0 -0 -0 -0 -0 -0 -0 -0 -0 -0 -20 -0 -0 -0 -0 -10 -0 -0 -0 -0 -0 -0 -3 -11 -17 -4 -0 -3 -1 -50 -30 -0 -0 -0 -0 -0 -0 -0 -0 -0 -0 -0
-0 -0 -0 -0 -0 -0 -0 -0 -0 -0 -0 -0 -0 -0 -8 -2 -0 -0 -0 -11 -2 -0 -6 -4 -69 -0 -0 -2 -6 -0 -0 -0 -0 -0 -0 -0 -0 -0 -0 -0 -0 -0 -0
-0 -0 -0 -0 -0 -0 -0 -0 -0 -0 -0 -1 -0 -4 -9 -13 -0 -0 -0 -0 -26 -4 -44 -29 -46 -6 -0 -0 -0 -0 -0 -0 -0 -0 -0 -0 -0 -0 -0 -0 -0 -0 -0
-0 -0 -0 -0 -0 -0 -0 -0 -0 -0 -0 -0 -0 -0 -4 -13 -0 -0 -15 -0 -27 -5 -0 -69 -18 -0 -0 -0 -0 -0 -0 -0 -0 -0 -0 -0 -0 -0 -0 -0 -0 -0 -0
-0 -0 -0 -0 -0 -0 -0 -0 -0 -0 -1 -0 -0 -0 -1 -0 -0 -0 -0 -0 -0 -0 -0 -0 -8 -0 -0 -0 -0 -0 -0 -0 -0 -0 -0 -0 -0 -0 -0 -0 -0 -0 -0
-0 -0 -0 -0 -0 -0 -0 -0 -0 -0 -0 -0 -0 -0 -11 -0 -0 -0 -0 -0 -30 -0 -0 -0 -0 -0 -0 -0 -0 -0 -0 -0 -0 -0 -0 -0 -0 -0 -0 -0 -0 -0 -0
-0 -0 -0 -0 -0 -0 -0 -0 -0 -0 -0 -0 -0 -1 -0 -0 -0 -0 -0 -1 -10 -0 -0 -0 -0 -0 -0 -0 -0 -0 -0 -0 -0 -0 -0 -0 -0 -0 -0 -0 -0 -0 -32
-0 -0 -0 -0 -0 -0 -0 -0 -0 -3 -2 -0 -0 -0 -0 -0 -0 -0 -0 -0 -0 -1 -0 -0 -0 -0 -0 -0 -0 -0 -0 -0 -0 -0 -0 -0 -0 -0 -0 -0 -0 -0 -182
-0 -0 -0 -0 -0 -0 -0 -0 -0 -0 -1 -0 -0 -0 -0 -0 -0 -0 -0 -0 -0 -0 -0 -0 -0 -0 -0 -0 -0 -0 -0 -0 -0 -0 -0 -0 -0 -0 -0 -0 -0 -0 -107
-0 -0 -0 -0 -0 -0 -0 -0 -0 -0 -0 -0 -0 -0 -0 -0 -0 -0 -0 -0 -0 -0 -0 -0 -0 -0 -0 -0 -0 -0 -0 -0 -0 -0 -0 -0 -0 -0 -0 -0 -0 -0 -0
-0 -0 -0 -0 -0 -0 -0 -0 -0 -0 -0 -0 -1 -0 -0 -0 -0 -0 -0 -0 -0 -0 -0 -0 -0 -0 -0 -0 -0 -0 -0 -0 -0 -0 -0 -0 -0 -0 -0 -0 -0 -0 -0
-0 -0 -0 -0 -0 -0 -0 -0 -0 -0 -0 -0 -0 -1 -0 -0 -0 -0 -0 -0 -0 -0 -0 -0 -0 -0 -0 -0 -0 -0 -0 -0 -0 -0 -0 -0 -0 -0 -0 -0 -0 -0 -0
-0 -0 -0 -0 -0 -0 -0 -0 -0 -0 -0 -0 -0 -0 -0 -0 -0 -0 -0 -0 -0 -0 -0 -0 -0 -0 -0 -0 -0 -0 -0 -0 -0 -0 -0 -0 -0 -0 -0 -0 -0 -0 -0
-0 -0 -0 -0 -0 -0 -0 -0 -0 -0 -0 -0 -0 -0 -0 -0 -0 -0 -0 -0 -0 -0 -0 -0 -0 -0 -0 -0 -0 -0 -0 -0 -0 -0 -0 -0 -0 -0 -0 -0 -0 -0 -0
-0 -0 -0 -0 -0 -0 -0 -0 -0 -0 -0 -0 -1 -0 -0 -0 -0 -0 -0 -0 -0 -0 -0 -0 -0 -0 -0 -0 -0 -0 -0 -0 -0 -0 -0 -0 -0 -0 -0 -0 -0 -0 -40
-0 -0 -0 -0 -0 -0 -0 -0 -1 -1 -3 -0 -0 -1 -0 -0 -0 -0 -0 -0 -0 -0 -0 -0 -0 -0 -0 -0 -0 -0 -0 -0 -0 -0 -0 -0 -0 -0 -47 -0 -6 -45 -37
-0 -0 -0 -0 -0 -0 -0 -0 -3 -0 -0 -0 -0 -0 -0 -0 -0 -0 -0 -0 -0 -0 -0 -0 -0 -0 -0 -0 -0 -0 -0 -0 -0 -0 -0 -0 -0 -26 -27 -0 -0 -0 -0
-0 -0 -0 -0 -0 -0 -0 -0 -0 -0 -0 -0 -0 -0 -0 -0 -0 -0 -0 -0 -0 -0 -0 -0 -0 -0 -0 -0 -0 -0 -0 -0 -0 -0 -0 -0 -0 -0 -0 -0 -0 -0 -0
Wind_Speed
8 8 8 8 8 7 7 7 8 7 8 8 8 7 7 6 6 5 5 7 6 6 5 7 9 9 8 8 7 6 7 6 6 4 4 2 3 5 6 5 3 5 3
6 7 7 6 7 7 8 10 8 9 8 9 8 7 7 7 6 7 7 6 6 8 9 6 8 6 8 8 7 7 6 5 5 8 2 3 3 2 4 5 4 3 4
5 6 6 7 7 8 8 8 6 8 8 7 7 8 8 8 7 7 7 7 7 7 9 9 8 7 8 6 6 6 5 5 7 6 11 5 4 1 5 2 4 2 3
3 3 5 7 7 7 7 7 7 7 7 7 8 9 8 8 8 8 8 8 8 9 10 11 11 10 10 11 10 11 8 8 8 9 8 6 4 4 3 3 2 0 2
6 6 7 7 7 7 7 8 9 8 10 11 9 8 8 7 6 8 8 9 9 10 11 12 13 15 17 14 11 14 13 11 8 9 8 4 3 3 5 4 3 2 2
6 7 7 7 7 8 8 9 8 9 10 10 10 11 10 7 10 14 10 7 9 11 12 13 14 19 20 24 27 28 19 14 15 11 9 10 9 5 3 4 3 2 2
6 8 8 9 10 10 10 9 8 8 8 9 9 9 10 8 12 15 16 9 9 12 13 14 14 14 21 21 24 29 26 20 17 14 12 7 6 7 6 5 3 3 4
10 11 11 12 14 14 14 15 15 12 11 11 11 11 9 9 14 14 16 9 8 12 15 16 16 18 21 26 26 24 23 19 17 10 11 9 5 7 6 6 5 2 2
12 13 13 13 12 10 11 12 12 12 12 9 11 11 9 9 13 15 13 10 8 13 13 14 14 17 23 28 24 23 17 10 6 7 8 9 11 11 8 5 2 2 3
13 13 13 12 13 13 13 13 12 11 12 11 13 15 15 14 15 18 16 6 8 8 9 11 14 15 10 11 11 14 14 13 13 8 6 6 8 6 9 5 6 4 3
13 13 13 13 13 12 13 12 11 11 12 13 13 12 11 12 12 15 14 6 7 6 6 6 7 6 5 9 15 13 15 13 10 8 6 4 4 4 3 4 6 5 4
13 14 14 13 11 11 12 11 11 11 11 11 12 12 9 10 12 12 13 11 5 2 8 5 7 14 10 7 11 14 17 13 8 7 5 4 3 3 4 5 6 6 5
14 14 13 13 12 11 12 11 9 9 9 11 9 8 8 7 7 11 12 9 10 2 5 11 6 12 16 8 12 15 12 7 7 4 4 4 3 3 0 3 4 4 5
15 14 12 12 12 11 9 8 8 8 8 8 9 8 6 4 4 4 4 4 5 2 7 8 4 7 1 7 7 5 5 6 6 5 3 3 3 2 0 2 2 2 1
13 12 12 10 11 10 10 9 8 9 8 8 8 6 5 4 4 4 3 4 4 3 5 2 4 6 4 4 5 4 4 5 4 4 3 3 2 1 2 2 2 2 4
13 11 10 9 9 9 8 9 10 15 14 17 16 7 4 6 9 6 3 2 3 3 3 4 3 7 6 6 5 4 3 4 4 4 3 3 2 2 2 1 3 2 3
13 13 11 12 9 8 8 8 7 7 11 14 14 12 8 5 10 6 0 5 6 3 6 3 4 7 5 6 6 5 5 4 3 3 3 3 3 2 0 3 3 2 3
14 21 11 10 9 8 7 7 5 5 5 6 6 7 8 8 8 7 5 4 4 2 4 3 4 5 5 5 5 4 4 5 3 4 4 3 3 3 3 4 4 4 3
12 10 10 10 9 9 6 6 5 5 7 4 2 4 7 9 8 5 6 2 3 5 2 3 3 3 5 5 5 4 5 4 4 4 3 3 3 4 4 4 4 5 4
11 18 15 10 8 5 4 5 4 4 5 4 2 2 2 2 3 4 3 3 3 4 3 3 3 4 4 5 4 4 4 4 4 3 2 4 5 5 4 5 5 4 5
9 10 12 8 4 1 1 2 3 4 2 2 2 3 5 4 4 4 4 5 3 4 3 3 4 5 4 4 5 4 5 5 4 4 4 2 3 3 4 4 4 4 3
8 8 5 5 4 3 1 1 2 2 1 1 2 1 3 3 3 3 4 4 4 4 3 2 3 5 7 7 7 5 5 5 5 3 2 3 3 3 3 4 4 3 4
8 8 8 5 4 4 3 2 2 2 0 1 2 3 2 3 2 4 4 4 4 3 4 2 3 4 4 4 5 6 6 5 5 4 4 3 2 2 3 4 4 4 6
9 9 9 8 5 3 3 2 3 2 1 2 1 2 3 2 1 2 2 3 1 2 2 1 3 6 6 5 4 5 5 4 4 4 5 3 2 3 4 3 2 4 6
9 9 9 9 8 8 2 2 1 1 2 2 1 0 3 3 3 2 2 3 0 2 2 1 3 6 7 8 8 9 8 6 4 3 2 2 3 4 2 1 3 5 8
10 11 9 9 9 8 8 7 5 3 1 1 1 1 2 3 3 2 2 2 1 1 2 2 2 6 8 6 7 6 6 5 4 4 1 1 3 4 0 6 6 7 9
Wind_Direction
220 227 222 221 216 206 205 214 210 199 201 199 203 201 206 213 225 230 253 282 288 283 270 251 245 222 212 215 210 208 210 211 212 235 197 206 275 249 293 264 224 231 228
304 306 273 247 231 224 221 223 218 217 204 206 203 207 209 214 221 223 230 238 260 284 286 271 258 254 239 210 192 179 167 207 203 230 288 260 268 262 253 239 245 217 240
307 282 277 284 307 290 268 249 231 220 225 221 210 210 208 213 214 222 223 225 225 239 260 267 263 244 218 190 182 193 210 200 210 177 227 233 262 229 257 286 247 265 261
342 333 303 289 277 265 256 261 256 249 258 242 225 224 219 211 208 218 222 229 231 235 239 248 254 241 235 214 212 212 210 216 211 213 199 217 198 208 216 216 241 207 269
322 315 291 284 276 265 260 252 247 236 239 238 239 241 239 225 221 215 218 221 226 241 244 245 242 242 238 232 230 230 225 226 213 208 215 193 162 195 196 185 173 202 290
329 312 307 305 300 290 286 285 275 262 254 244 233 226 230 228 227 229 225 226 233 240 248 247 241 243 239 237 235 238 239 217 208 216 199 217 199 186 160 153 143 139 255
289 291 289 285 286 284 280 273 264 258 253 248 239 223 220 222 224 230 235 236 236 243 245 247 247 249 243 241 240 233 224 203 204 202 199 182 180 172 150 155 163 159 198
293 290 287 285 282 281 280 276 273 266 256 251 244 229 228 230 224 233 250 259 253 254 251 250 250 261 257 240 238 225 210 203 205 191 194 195 157 155 147 152 159 163 311
287 287 289 290 292 298 295 295 296 298 286 256 254 250 238 236 236 241 243 250 248 257 258 252 264 284 273 251 201 191 179 152 141 160 165 150 142 146 137 106 130 117 267
295 294 291 284 285 283 284 283 280 283 285 282 274 263 252 248 243 247 239 224 249 257 257 267 292 288 264 103 129 139 145 139 162 137 119 110 129 142 158 161 156 169 189
291 287 288 284 279 277 283 278 274 278 276 270 266 263 264 255 251 232 240 237 238 256 269 280 291 315 276 130 128 138 157 149 134 132 120 124 128 139 188 200 195 171 179
291 291 288 285 280 275 273 274 269 272 278 280 271 267 251 247 238 246 245 232 228 239 304 261 268 162 227 186 155 134 127 123 128 124 127 134 137 204 228 215 210 213 220
293 290 287 279 276 273 272 270 269 266 266 262 259 267 253 243 239 238 253 231 213 159 284 269 263 181 180 185 132 132 113 117 121 117 142 163 165 186 345 311 259 232 235
292 285 280 278 279 272 266 262 266 262 264 273 269 260 240 240 245 254 245 204 203 193 265 253 201 152 203 119 95 94 114 134 143 152 159 140 119 112 160 208 295 217 251
286 285 282 277 274 274 265 261 260 263 256 268 274 256 232 236 246 241 252 239 197 245 282 210 132 127 145 126 100 122 115 119 135 154 139 136 126 132 240 193 244 240 224
289 289 285 286 281 276 274 272 247 253 261 266 262 275 249 221 166 177 117 0 196 236 269 231 144 147 172 152 139 133 129 148 174 174 147 137 174 213 250 248 230 239 258
293 293 289 285 277 273 268 268 269 271 257 270 231 244 237 150 159 195 47 23 18 221 224 189 154 151 164 153 149 149 173 181 151 167 157 176 201 225 210 242 231 241 191
288 284 277 274 264 262 258 261 244 262 270 282 210 202 224 217 188 200 136 42 326 308 225 160 151 138 150 144 141 143 143 146 155 151 172 186 212 204 175 231 212 220 194
293 288 283 275 267 253 246 254 232 244 272 262 196 173 220 222 229 198 182 151 266 274 236 175 141 148 147 131 142 142 138 143 141 153 179 165 199 194 213 216 213 222 195
299 292 285 279 270 246 221 238 222 247 248 237 245 223 130 120 174 185 176 179 260 296 286 187 165 133 142 148 151 139 136 138 137 154 170 197 212 200 198 208 205 202 216
303 301 298 334 345 239 202 223 220 255 156 276 257 199 180 202 196 185 160 197 208 253 261 202 170 154 169 157 133 171 135 123 150 186 184 200 196 175 202 220 216 198 206
305 313 336 357 5 24 31 240 233 159 143 241 313 3 192 233 189 179 170 194 196 239 254 266 181 175 165 161 148 132 140 170 183 186 155 153 178 191 205 221 220 196 180
331 339 347 3 25 31 26 24 86 142 358 291 331 329 194 251 184 174 192 216 218 227 257 264 133 133 123 129 147 152 140 163 186 167 153 167 174 231 241 242 223 202 187
350 355 358 359 8 38 32 51 63 62 276 258 276 313 357 339 301 112 190 227 241 269 239 292 151 147 140 150 143 128 116 138 146 155 154 147 208 232 239 256 263 228 223
2 3 5 5 3 5 10 59 64 48 338 15 136 279 308 330 18 32 3 27 200 206 215 150 128 130 142 158 149 136 139 150 137 171 167 173 244 263 235 145 124 102 116
10 11 11 7 10 11 11 9 3 6 331 360 154 164 254 284 308 10 34 60 37 169 150 187 210 136 141 136 122 120 139 155 181 204 145 206 260 284 227 121 137 120 131